Date String (YYYY-MM-DD hh:mm:ss) UTC,Instrument flags,Ambient pressure (hPa),Sample flow (lpm),Bypass flow (lpm),Sample temperature (°C),Ambient temperature (°C),ASC tube jacket temperature (°C),LED temperature (°C),Box temperature (°C),Sample RH (%),Span deviation,Mass concentration (μg/m³),Mass concentration (μg/m³),Mass concentration (μg/m³)
DateTimeUTC,F1_M11,P_M11,Q1_M11,Q2_M11,T1_M11,T2_M11,T3_M11,T4_M11,T5_M11,U1_M11,ZSPAN_M11,X0_M11,X2_M11,X1_M11
2022-09-01 22:00:00,,0826.3,5.00,0.00,29.5,26.7,00.0,38.1,31.3,14.9,0000.0,0011.27,0006.69,0006.14
2022-09-01 22:01:00,,0826.2,5.00,0.00,29.5,27.0,00.0,38.1,31.3,14.9,0000.0,0011.34,0006.72,0006.15
2022-09-01 22:02:00,,0826.3,5.00,0.00,29.4,27.3,00.0,38.1,31.2,15.1,0000.0,0011.38,0006.73,0006.16
2022-09-01 22:03:00,,0826.2,4.99,0.00,29.5,27.6,00.0,38.1,31.2,15.1,0000.0,0011.50,0006.74,0006.16
2022-09-01 22:04:00,,0826.2,5.00,0.00,29.5,27.9,00.0,38.1,31.3,15.1,0000.0,0011.04,0006.74,0006.15
2022-09-01 22:05:00,,0826.2,5.01,0.00,29.5,28.1,00.0,38.1,31.4,15.6,0000.0,0010.90,0006.74,0006.15
2022-09-01 22:06:00,,0826.2,4.99,0.00,29.6,28.2,00.0,38.1,31.5,15.4,0000.0,0011.14,0006.73,0006.15
2022-09-01 22:07:00,,0826.2,5.01,0.00,29.6,27.2,00.0,38.1,31.4,15.0,0000.0,0011.12,0006.73,0006.16
2022-09-01 22:08:00,,0826.3,4.99,0.00,29.5,26.5,00.0,38.1,31.3,15.0,0000.0,0011.65,0006.74,0006.16
2022-09-01 22:09:00,,0826.2,4.99,0.00,29.5,26.8,00.0,38.1,31.3,15.3,0000.0,0011.99,0006.69,0006.13
2022-09-01 22:10:00,,0826.2,5.01,0.00,29.5,27.1,00.0,38.1,31.2,15.8,0000.0,0012.46,0006.66,0006.11
2022-09-01 22:11:00,,0826.2,5.00,0.00,29.4,27.4,00.0,38.0,31.2,16.3,0000.0,0013.62,0006.66,0006.08
2022-09-01 22:12:00,,0826.2,5.01,0.00,29.5,27.7,00.0,38.1,31.3,16.1,0000.0,0013.88,0006.63,0006.04
2022-09-01 22:13:00,,0826.2,5.00,0.00,29.5,28.0,00.0,38.1,31.3,16.0,0000.0,0014.18,0006.59,0005.99
2022-09-01 22:14:00,,0826.2,5.01,0.00,29.5,28.2,00.0,38.1,31.4,15.7,0000.0,0014.08,0006.56,0005.95
2022-09-01 22:15:00,,0826.1,5.00,0.00,29.6,27.9,00.0,38.1,31.4,15.7,0000.0,0014.33,0006.55,0005.92
2022-09-01 22:16:00,,0826.1,5.00,0.00,29.5,26.8,00.0,38.1,31.3,15.5,0000.0,0014.05,0006.54,0005.90
2022-09-01 22:17:00,,0826.1,5.00,0.00,29.5,26.7,00.0,38.1,31.3,15.5,0000.0,0013.65,0006.53,0005.87
2022-09-01 22:18:00,,0826.2,4.99,0.00,29.5,27.0,00.0,38.1,31.3,15.6,0000.0,0013.61,0006.52,0005.84
2022-09-01 22:19:00,,0826.1,4.99,0.00,29.4,27.3,00.0,38.1,31.2,15.6,0000.0,0013.33,0006.51,0005.82
2022-09-01 22:20:00,,0826.1,5.00,0.00,29.4,27.6,00.0,38.1,31.2,15.5,0000.0,0012.74,0006.50,0005.81
2022-09-01 22:21:00,,0826.2,5.01,0.00,29.5,27.9,00.0,38.1,31.3,15.7,0000.0,0012.08,0006.45,0005.80
2022-09-01 22:22:00,,0826.1,5.01,0.00,29.5,28.1,00.0,38.1,31.4,15.5,0000.0,0011.24,0006.43,0005.80
2022-09-01 22:23:00,,0826.1,5.01,0.00,29.6,28.2,00.0,38.1,31.5,15.7,0000.0,0011.38,0006.40,0005.81
2022-09-01 22:24:00,,0826.1,4.98,0.00,29.6,27.3,00.0,38.1,31.3,15.6,0000.0,0012.12,0006.40,0005.81
2022-09-01 22:25:00,,0826.1,5.00,0.00,29.5,26.5,00.0,38.1,31.2,15.6,0000.0,0012.06,0006.37,0005.82
2022-09-01 22:26:00,,0826.2,5.00,0.00,29.4,26.7,00.0,38.1,31.2,15.4,0000.0,0011.86,0006.35,0005.83
2022-09-01 22:27:00,,0826.2,5.01,0.00,29.4,27.0,00.0,38.1,31.1,15.2,0000.0,0011.83,0006.32,0005.82
2022-09-01 22:28:00,,0826.2,4.99,0.00,29.4,27.3,00.0,38.0,31.1,15.2,0000.0,0011.44,0006.29,0005.81
2022-09-01 22:29:00,,0826.2,5.01,0.00,29.4,27.7,00.0,38.0,31.2,15.2,0000.0,0011.46,0006.28,0005.81
2022-09-01 22:30:00,,0826.2,5.00,0.00,29.5,27.9,00.0,38.1,31.3,15.2,0000.0,0012.20,0006.26,0005.81
2022-09-01 22:31:00,,0826.1,5.01,0.00,29.5,28.2,00.0,38.1,31.4,15.3,0000.0,0012.53,0006.27,0005.80
2022-09-01 22:32:00,,0826.1,5.01,0.00,29.6,28.3,00.0,38.1,31.4,15.4,0000.0,0012.71,0006.30,0005.79
2022-09-01 22:33:00,,0826.2,4.99,0.00,29.6,27.4,00.0,38.1,31.4,15.5,0000.0,0012.71,0006.29,0005.80
2022-09-01 22:34:00,,0826.1,4.99,0.00,29.5,26.5,00.0,38.1,31.2,15.4,0000.0,0012.15,0006.29,0005.80
2022-09-01 22:35:00,,0826.1,5.00,0.00,29.5,26.7,00.0,38.1,31.3,15.3,0000.0,0010.78,0006.30,0005.79
2022-09-01 22:36:00,,0826.1,5.00,0.00,29.4,27.0,00.0,38.1,31.2,15.5,0000.0,0010.87,0006.34,0005.78
2022-09-01 22:37:00,,0826.2,5.00,0.00,29.4,27.3,00.0,38.0,31.1,15.4,0000.0,0011.22,0006.37,0005.78
2022-09-01 22:38:00,,0826.2,4.99,0.00,29.4,27.6,00.0,38.0,31.2,15.6,0000.0,0011.28,0006.38,0005.78
2022-09-01 22:39:00,,0826.2,5.01,0.00,29.5,27.9,00.0,38.1,31.3,15.5,0000.0,0011.34,0006.40,0005.79
2022-09-01 22:40:00,,0826.2,5.00,0.00,29.5,28.1,00.0,38.1,31.4,15.5,0000.0,0012.24,0006.39,0005.78
2022-09-01 22:41:00,,0826.2,5.01,0.00,29.5,28.3,00.0,38.1,31.5,15.7,0000.0,0011.82,0006.40,0005.76
2022-09-01 22:42:00,,0826.2,4.98,0.00,29.6,27.4,00.0,38.1,31.4,15.9,0000.0,0012.03,0006.42,0005.75
2022-09-01 22:43:00,,0826.1,5.02,0.00,29.5,26.5,00.0,38.1,31.3,15.7,0000.0,0012.58,0006.43,0005.76
2022-09-01 22:44:00,,0826.0,5.00,0.00,29.5,26.7,00.0,38.1,31.3,15.7,0000.0,0013.05,0006.41,0005.75
2022-09-01 22:45:00,,0826.1,5.00,0.00,29.4,26.9,00.0,38.0,31.2,15.8,0000.0,0013.56,0006.44,0005.76
2022-09-01 22:46:00,,0826.0,4.99,0.00,29.4,27.3,00.0,38.0,31.2,15.5,0000.0,0013.72,0006.46,0005.78
2022-09-01 22:47:00,,0826.0,5.00,0.00,29.4,27.6,00.0,38.0,31.2,15.4,0000.0,0013.99,0006.47,0005.80
2022-09-01 22:48:00,,0826.0,5.00,0.00,29.5,27.9,00.0,38.1,31.3,15.3,0000.0,0013.66,0006.45,0005.80
2022-09-01 22:49:00,,0826.0,5.01,0.00,29.5,28.1,00.0,38.1,31.4,15.3,0000.0,0013.51,0006.44,0005.80
2022-09-01 22:50:00,,0826.0,5.00,0.00,29.5,27.9,00.0,38.1,31.4,15.4,0000.0,0013.49,0006.45,0005.79
2022-09-01 22:51:00,,0826.0,5.00,0.00,29.5,26.8,00.0,38.1,31.2,15.4,0000.0,0012.54,0006.47,0005.81
2022-09-01 22:52:00,,0826.0,5.00,0.00,29.4,26.4,00.0,38.1,31.2,15.6,0000.0,0012.96,0006.44,0005.81
2022-09-01 22:53:00,,0826.0,5.00,0.00,29.4,26.7,00.0,38.0,31.2,15.5,0000.0,0012.45,0006.44,0005.81
2022-09-01 22:54:00,,0826.0,5.00,0.00,29.4,27.0,00.0,38.0,31.1,15.3,0000.0,0011.92,0006.45,0005.81
2022-09-01 22:55:00,,0826.0,4.99,0.00,29.4,27.3,00.0,38.0,31.1,15.3,0000.0,0011.49,0006.47,0005.80
2022-09-01 22:56:00,,0826.0,5.00,0.00,29.4,27.6,00.0,38.0,31.2,15.6,0000.0,0011.07,0006.47,0005.78
2022-09-01 22:57:00,,0825.9,5.00,0.00,29.4,27.9,00.0,38.0,31.3,15.6,0000.0,0011.04,0006.48,0005.76
2022-09-01 22:58:00,,0825.9,5.01,0.00,29.5,28.2,00.0,38.1,31.4,16.1,0000.0,0011.30,0006.48,0005.74
2022-09-01 22:59:00,,0825.9,4.99,0.00,29.5,28.4,00.0,38.1,31.5,15.6,0000.0,0012.03,0006.47,0005.73
